TimeEST,TemperatureF,Dew PointF,Humidity,Sea Level PressureIn,VisibilityMPH,Wind Direction,Wind SpeedMPH,Gust SpeedMPH,PrecipitationIn,Events,Conditions,WindDirDegrees,DateUTC
12:53 AM,73.9,69.1,85,30.13,10.0,ENE,15.0,21.9,N/A,,Overcast,70,2014-01-01 05:53:00
1:53 AM,75.0,71.1,87,30.12,10.0,ENE,12.7,19.6,N/A,,Overcast,70,2014-01-01 06:53:00
2:53 AM,75.0,71.1,87,30.10,10.0,ENE,12.7,-,N/A,,Mostly Cloudy,70,2014-01-01 07:53:00
3:53 AM,75.0,72.0,90,30.09,10.0,ENE,10.4,-,N/A,,Clear,70,2014-01-01 08:53:00
4:53 AM,75.0,71.1,87,30.09,10.0,East,11.5,-,N/A,,Clear,90,2014-01-01 09:53:00
5:53 AM,75.0,73.0,94,30.09,10.0,East,13.8,-,N/A,,Clear,90,2014-01-01 10:53:00
6:53 AM,75.0,72.0,90,30.10,10.0,East,13.8,21.9,N/A,,Clear,100,2014-01-01 11:53:00
7:53 AM,75.9,72.0,87,30.12,10.0,ESE,11.5,-,N/A,,Mostly Cloudy,110,2014-01-01 12:53:00
8:53 AM,79.0,72.0,79,30.13,10.0,ESE,11.5,-,N/A,,Scattered Clouds,110,2014-01-01 13:53:00
9:53 AM,82.0,73.0,74,30.14,10.0,ESE,13.8,-,N/A,,Partly Cloudy,120,2014-01-01 14:53:00
10:28 AM,82.4,73.4,74,30.14,10.0,ESE,15.0,-,N/A,,Mostly Cloudy,120,2014-01-01 15:28:00
10:46 AM,82.4,73.4,74,30.14,10.0,ESE,13.8,-,N/A,,Scattered Clouds,120,2014-01-01 15:46:00
10:53 AM,82.9,73.0,72,30.14,10.0,ESE,13.8,-,N/A,,Scattered Clouds,110,2014-01-01 15:53:00
11:53 AM,82.9,73.0,72,30.12,10.0,ESE,13.8,-,N/A,,Clear,120,2014-01-01 16:53:00
12:53 PM,82.9,73.0,72,30.09,10.0,ESE,16.1,-,N/A,,Partly Cloudy,120,2014-01-01 17:53:00
1:53 PM,82.9,73.0,72,30.05,10.0,ESE,13.8,-,N/A,,Mostly Cloudy,110,2014-01-01 18:53:00
2:53 PM,82.0,73.0,74,30.04,10.0,ESE,13.8,-,N/A,,Partly Cloudy,110,2014-01-01 19:53:00
3:53 PM,82.0,73.9,76,30.04,10.0,ESE,11.5,-,N/A,,Clear,110,2014-01-01 20:53:00
4:53 PM,80.1,73.0,79,30.04,10.0,ESE,10.4,-,N/A,,Partly Cloudy,110,2014-01-01 21:53:00
5:53 PM,78.1,73.0,84,30.03,10.0,ESE,11.5,-,N/A,,Clear,120,2014-01-01 22:53:00
6:53 PM,78.1,73.0,84,30.04,10.0,ESE,9.2,-,N/A,,Clear,110,2014-01-01 23:53:00
7:53 PM,78.1,72.0,81,30.05,10.0,ESE,11.5,-,N/A,,Clear,110,2014-01-02 00:53:00
8:53 PM,77.0,72.0,84,30.06,10.0,ESE,11.5,-,N/A,,Clear,110,2014-01-02 01:53:00
9:53 PM,77.0,71.1,82,30.05,10.0,ESE,12.7,-,N/A,,Clear,110,2014-01-02 02:53:00
10:53 PM,77.0,71.1,82,30.04,10.0,ESE,12.7,-,N/A,,Clear,120,2014-01-02 03:53:00
11:53 PM,77.0,71.1,82,30.03,10.0,ESE,12.7,-,N/A,,Clear,120,2014-01-02 04:53:00